Flag for U.S.A. Weather past 2 weeks in Lynchburg, Virginia, U.S.A.

Now
26 °F

Overcast.


Feels Like: 26 °F
Forecast: 15 / 35 °F
Wind: No wind

Location: Lynchburg Regional Airport

Current Time: Mar 1, 2015 at 8:11:05 AM

Latest Report: Mar 1, 2015 at 6:54 AM


Visibility: 10 mi

Pressure: 30.62 "Hg

Humidity: 63%

Dew point: 15 °F

Location of LynchburgLocation

Historic Weather in Lynchburg — Graph

°F

Lynchburg temperature yesterday

Maximum temperature yesterday: 31 °F (at 4:54 PM)
Minimum temperature yesterday: 18 °F (at 6:54 AM)
Average temperature yesterday: 25 °F

Past Weeks' High & Low Weather Summary

 TemperatureHumidityPressure
High50 °F (Feb 22, 1:54 PM)100% (Feb 21, 9:54 PM)30.84 "Hg (Feb 21, 9:54 PM)
Low-9 °F (Feb 20, 6:54 AM)20% (Feb 15, 2:54 PM)29.57 "Hg (Feb 14, 3:54 PM)
Average23 °F61%30.19 "Hg
* Reported Feb 14 6:54 AM — Mar 1 6:54 AM, Lynchburg, Weather by CustomWeather, © 2015

Note: Actual official high and low records may vary slightly from our data, if they occured in-between our weather recording intervals... More about our weather records

Advertising

Lynchburg weather history for previous 24 hours

 ConditionsComfort  
Time TempWeatherWind HumidityBarometerVisibility
6:54 AM
Sun, Mar 1
26 °FOvercast.No wind63%30.62 "Hg10 mi
5:54 AM26 °FOvercast.No wind63%30.63 "Hg10 mi
5:02 AM26 °FOvercast.No wind63%30.58 "Hg10 mi
4:54 AM26 °FOvercast.No wind63%30.61 "Hg10 mi
3:54 AM25 °FOvercast.No wind55%30.63 "Hg10 mi
2:54 AM22 °FPassing clouds.No wind72%30.66 "Hg10 mi
1:54 AM22 °FPassing clouds.No wind62%30.68 "Hg10 mi
12:54 AM22 °FClear.No wind66%30.70 "Hg10 mi
11:54 PM
Sat, Feb 28
24 °FClear.No wind57%30.72 "Hg10 mi
10:54 PM25 °FClear.No wind58%30.73 "Hg10 mi
9:54 PM26 °FClear.No wind57%30.73 "Hg10 mi
8:54 PM30 °FOvercast.3 mph51%30.74 "Hg10 mi
7:54 PM30 °FOvercast.3 mph47%30.73 "Hg10 mi
6:54 PM31 °FOvercast.3 mph45%30.72 "Hg10 mi
5:54 PM31 °FOvercast.No wind43%30.72 "Hg10 mi
4:54 PM31 °FPassing clouds.No wind43%30.72 "Hg10 mi
3:54 PM30 °FSunny.5 mph41%30.72 "Hg10 mi
2:54 PM29 °FSunny.No wind41%30.73 "Hg10 mi
1:54 PM29 °FSunny.3 mph38%30.74 "Hg10 mi
12:54 PM26 °FSunny.No wind38%30.80 "Hg10 mi
11:54 AM25 °FSunny.No wind40%30.81 "Hg10 mi
10:54 AM22 °FSunny.6 mph46%30.83 "Hg10 mi
9:54 AM20 °FSunny.6 mph50%30.83 "Hg10 mi
8:54 AM19 °FSunny.12 mph52%30.84 "Hg10 mi
Weather by CustomWeather, © 2015

See weather overviewHow to use our weather pages